| time (UTC) | temp F | wind direction | speed knots | gust knots | rain 1hr in | rain 24hr in | rain mn in | humidity % | barometer mb |
| 20260831022059 | 60 | 0.0 | 0.0 | 0.00 | 0.01 | 0.00 | 99 | 1011.5 | |
| 20260831020053 | 59 | 0.0 | 0.0 | 0.00 | 0.01 | 0.00 | 99 | 1011.3 | |
| 20260831015049 | 59 | 0.0 | 0.0 | 0.00 | 0.01 | 0.00 | 99 | 1011.4 | |
| 20260831014046 | 58 | 0.0 | 0.0 | 0.00 | 0.01 | 0.00 | 99 | 1011.5 | |
| 20260831012040 | 57 | 0.0 | 0.0 | 0.00 | 0.01 | 0.00 | 99 | 1011.6 | |
| 20260831011037 | 56 | 0.0 | 0.0 | 0.00 | 0.01 | 0.00 | 99 | 1011.8 | |
| 20260831005030 | 56 | 0.0 | 0.0 | 0.00 | 0.01 | 0.00 | 99 | 1012.0 | |
| 20260831003024 | 55 | 0.0 | 0.0 | 0.00 | 0.01 | 0.00 | 99 | 1012.2 | |
| 20260831002021 | 55 | 0.0 | 0.0 | 0.00 | 0.01 | 0.00 | 99 | 1012.3 | |
| 20260831001018 | 54 | 0.0 | 0.0 | 0.00 | 0.01 | 0.00 | 99 | 1012.5 | |
| 20260831000035 | 54 | 0.0 | 0.0 | 0.00 | 0.01 | 0.00 | 99 | 1012.6 | |
| 20260830235112 | 54 | 0.0 | 0.0 | 0.00 | 0.01 | 0.00 | 99 | 1012.6 | |
| 20260830234109 | 54 | 0.0 | 0.0 | 0.00 | 0.01 | 0.00 | 99 | 1012.7 | |
| 20260830233106 | 54 | 0.0 | 0.0 | 0.00 | 0.01 | 0.00 | 99 | 1012.7 | |
| 20260830232123 | 54 | 0.0 | 0.0 | 0.00 | 0.01 | 0.00 | 99 | 1012.7 | |
| 20260830231059 | 54 | 0.0 | 0.0 | 0.00 | 0.01 | 0.00 | 99 | 1012.9 | |
| 20260830230056 | 54 | 0.0 | 0.0 | 0.00 | 0.01 | 0.00 | 99 | 1013.0 | |
| 20260830225053 | 54 | 0.0 | 0.0 | 0.00 | 0.01 | 0.00 | 99 | 1013.2 | |
| 20260830223047 | 55 | 0.0 | 0.0 | 0.00 | 0.01 | 0.00 | 99 | 1013.3 | |
| 20260830222103 | 55 | 0.0 | 0.0 | 0.00 | 0.01 | 0.00 | 99 | 1013.3 | |
| 20260830221100 | 55 | 0.0 | 0.0 | 0.00 | 0.01 | 0.00 | 99 | 1013.4 | |
| 20260830220037 | 55 | 0.0 | 0.0 | 0.00 | 0.01 | 0.00 | 99 | 1013.4 | |
| 20260830215034 | 55 | 0.0 | 0.0 | 0.00 | 0.01 | 0.01 | 99 | 1013.4 | |
| 20260830213028 | 56 | 0.0 | 0.0 | 0.00 | 0.01 | 0.01 | 99 | 1013.4 | |
| 20260830212025 | 56 | 0.0 | 0.0 | 0.00 | 0.01 | 0.01 | 98 | 1013.4 | |
| 20260830211022 | 57 | 0.0 | 0.0 | 0.00 | 0.01 | 0.01 | 98 | 1013.3 | |
| 20260830205016 | 57 | 0.0 | 0.0 | 0.00 | 0.01 | 0.01 | 98 | 1013.2 | |
| 20260830204113 | 58 | 0.0 | 0.0 | 0.00 | 0.01 | 0.01 | 98 | 1013.3 | |
| 20260830202106 | 57 | 0.0 | 0.0 | 0.00 | 0.01 | 0.01 | 97 | 1013.3 | |
| 20260830200140 | 57 | 0.0 | 0.0 | 0.00 | 0.01 | 0.01 | 97 | 1013.3 | |
| 20260830195057 | 58 | 0.0 | 0.0 | 0.00 | 0.01 | 0.01 | 96 | 1013.3 | |
| 20260830194054 | 59 | 0.0 | 0.0 | 0.00 | 0.01 | 0.01 | 95 | 1013.3 | |
| 20260830193051 | 60 | 0.0 | 0.0 | 0.00 | 0.01 | 0.01 | 94 | 1013.4 | |
| 20260830191044 | 61 | 0.0 | 0.0 | 0.00 | 0.01 | 0.01 | 92 | 1013.3 | |
| 20260830190041 | 62 | 0.0 | 0.0 | 0.00 | 0.01 | 0.01 | 89 | 1013.2 | |
| 20260830185038 | 63 | 0.0 | 0.0 | 0.00 | 0.01 | 0.01 | 88 | 1013.2 | |
| 20260830181025 | 67 | 0.0 | 0.0 | 0.00 | 0.01 | 0.01 | 79 | 1012.8 | |
| 20260830174016 | 70 | 0.0 | 0.0 | 0.00 | 0.01 | 0.01 | 76 | 1012.5 | |
| 20260830173113 | 70 | 0.0 | 0.0 | 0.00 | 0.01 | 0.01 | 76 | 1012.5 | |
| 20260830172109 | 72 | 0.0 | 0.0 | 0.00 | 0.01 | 0.01 | 75 | 1012.6 | |
| 20260830171106 | 73 | 0.0 | 0.0 | 0.00 | 0.01 | 0.01 | 70 | 1012.5 | |
| 20260830170103 | 75 | 0.0 | 1.7 | 0.00 | 0.01 | 0.01 | 62 | 1012.5 | |
| 20260830165100 | 76 | 180 | 0.0 | 1.7 | 0.00 | 0.01 | 0.01 | 63 | 1012.5 |
| 20260830164057 | 77 | 0.0 | 0.0 | 0.00 | 0.01 | 0.01 | 61 | 1012.6 | |
| 20260830163053 | 77 | 0.0 | 0.0 | 0.00 | 0.01 | 0.01 | 58 | 1012.4 | |
| 20260830162051 | 76 | 0 | 0.0 | 2.6 | 0.00 | 0.01 | 0.01 | 57 | 1012.5 |
| 20260830161047 | 76 | 0.0 | 1.7 | 0.00 | 0.01 | 0.01 | 57 | 1012.5 | |
| 20260830160044 | 77 | 270 | 0.0 | 1.7 | 0.00 | 0.01 | 0.01 | 57 | 1012.4 |
| 20260830154038 | 77 | 194 | 0.9 | 4.3 | 0.00 | 0.01 | 0.01 | 58 | 1012.6 |
| 20260830153035 | 78 | 260 | 0.9 | 6.1 | 0.00 | 0.01 | 0.01 | 55 | 1012.6 |
| 20260830152031 | 77 | 199 | 1.7 | 3.5 | 0.00 | 0.01 | 0.01 | 56 | 1012.6 |
| 20260830151028 | 78 | 233 | 0.9 | 3.5 | 0.00 | 0.01 | 0.01 | 56 | 1012.7 |
| 20260830150025 | 78 | 217 | 2.6 | 10.4 | 0.00 | 0.01 | 0.01 | 54 | 1012.7 |
| 20260830145022 | 77 | 180 | 1.7 | 6.1 | 0.00 | 0.01 | 0.01 | 55 | 1012.7 |
| 20260830144019 | 77 | 229 | 0.9 | 4.3 | 0.00 | 0.01 | 0.01 | 56 | 1012.8 |
| 20260830143015 | 77 | 250 | 2.6 | 7.0 | 0.00 | 0.01 | 0.01 | 58 | 1012.8 |
| 20260830141109 | 78 | 216 | 1.7 | 8.7 | 0.00 | 0.01 | 0.01 | 55 | 1012.8 |
| 20260830140106 | 79 | 267 | 2.6 | 9.6 | 0.00 | 0.01 | 0.01 | 53 | 1012.8 |
| 20260830135123 | 78 | 248 | 2.6 | 8.7 | 0.00 | 0.01 | 0.01 | 53 | 1012.9 |
| 20260830132113 | 79 | 178 | 2.6 | 7.8 | 0.00 | 0.01 | 0.01 | 54 | 1012.9 |
| 20260830131052 | 80 | 219 | 3.5 | 9.6 | 0.00 | 0.01 | 0.01 | 51 | 1012.9 |
| 20260830124039 | 78 | 264 | 1.7 | 7.0 | 0.00 | 0.01 | 0.01 | 52 | 1013.0 |
| 20260830123056 | 78 | 0 | 2.6 | 7.8 | 0.00 | 0.01 | 0.01 | 58 | 1013.0 |
| 20260830122033 | 78 | 214 | 0.9 | 5.2 | 0.00 | 0.01 | 0.01 | 55 | 1013.2 |
| 20260830121030 | 79 | 252 | 2.6 | 7.8 | 0.00 | 0.01 | 0.01 | 57 | 1013.2 |
| 20260830120047 | 78 | 233 | 2.6 | 6.1 | 0.00 | 0.01 | 0.01 | 55 | 1013.0 |
| 20260830114106 | 76 | 15 | 1.7 | 9.6 | 0.00 | 0.01 | 0.01 | 59 | 1013.2 |
| 20260830113018 | 77 | 220 | 1.7 | 4.3 | 0.00 | 0.01 | 0.01 | 60 | 1013.2 |
| 20260830112115 | 78 | 249 | 1.7 | 4.3 | 0.00 | 0.01 | 0.01 | 56 | 1013.1 |
| 20260830110108 | 77 | 260 | 2.6 | 10.4 | 0.00 | 0.01 | 0.01 | 58 | 1013.3 |
| 20260830105125 | 76 | 220 | 4.3 | 13.0 | 0.00 | 0.01 | 0.01 | 60 | 1013.3 |
| 20260830103058 | 74 | 216 | 2.6 | 8.7 | 0.00 | 0.01 | 0.01 | 63 | 1013.4 |
| 20260830102055 | 74 | 211 | 2.6 | 8.7 | 0.00 | 0.01 | 0.01 | 63 | 1013.5 |
| 20260830100128 | 74 | 255 | 2.6 | 8.7 | 0.00 | 0.01 | 0.01 | 67 | 1013.6 |
| 20260830095045 | 73 | 217 | 2.6 | 5.2 | 0.00 | 0.01 | 0.01 | 66 | 1013.7 |
| 20260830094042 | 74 | 219 | 3.5 | 13.0 | 0.00 | 0.01 | 0.01 | 68 | 1013.7 |
| 20260830093039 | 75 | 216 | 3.5 | 10.4 | 0.00 | 0.01 | 0.01 | 67 | 1013.8 |
| 20260830092037 | 74 | 270 | 2.6 | 9.6 | 0.00 | 0.01 | 0.01 | 66 | 1013.7 |
| 20260830091033 | 74 | 194 | 4.3 | 9.6 | 0.00 | 0.01 | 0.01 | 67 | 1013.6 |
| 20260830090030 | 74 | 299 | 1.7 | 7.0 | 0.00 | 0.01 | 0.01 | 66 | 1013.5 |
| 20260830085027 | 74 | 257 | 1.7 | 7.0 | 0.00 | 0.01 | 0.01 | 67 | 1013.5 |
| 20260830084023 | 73 | 221 | 2.6 | 10.4 | 0.00 | 0.01 | 0.01 | 70 | 1013.6 |
| 20260830083022 | 73 | 232 | 2.6 | 11.3 | 0.00 | 0.01 | 0.01 | 70 | 1013.6 |
| 20260830082017 | 72 | 227 | 3.5 | 10.4 | 0.00 | 0.01 | 0.01 | 71 | 1013.5 |
| 20260830081114 | 72 | 243 | 1.7 | 5.2 | 0.00 | 0.01 | 0.01 | 73 | 1013.4 |
| 20260830080111 | 72 | 237 | 2.6 | 10.4 | 0.00 | 0.01 | 0.01 | 73 | 1013.5 |
| 20260830073101 | 70 | 286 | 2.6 | 12.2 | 0.00 | 0.01 | 0.01 | 75 | 1013.4 |
| 20260830072058 | 70 | 245 | 1.7 | 6.1 | 0.00 | 0.01 | 0.01 | 79 | 1013.4 |
| 20260830071055 | 69 | 234 | 3.5 | 7.8 | 0.00 | 0.01 | 0.01 | 80 | 1013.2 |
| 20260830065048 | 68 | 206 | 3.5 | 7.0 | 0.00 | 0.01 | 0.01 | 82 | 1013.3 |
| 20260830064045 | 68 | 276 | 0.9 | 5.2 | 0.00 | 0.01 | 0.01 | 84 | 1013.2 |
| 20260830063043 | 67 | 207 | 0.0 | 2.6 | 0.00 | 0.01 | 0.01 | 84 | 1013.1 |
| 20260830062039 | 67 | 0 | 0.9 | 3.5 | 0.00 | 0.01 | 0.01 | 85 | 1013.3 |
| 20260830061036 | 66 | 0.0 | 1.7 | 0.00 | 0.01 | 0.01 | 85 | 1013.2 | |
| 20260830060033 | 64 | 0.0 | 0.0 | 0.01 | 0.01 | 0.01 | 88 | 1013.2 | |
| 20260830055030 | 62 | 0.0 | 0.0 | 0.01 | 0.01 | 0.01 | 91 | 1013.1 | |
| 20260830054027 | 62 | 0.0 | 0.0 | 0.01 | 0.01 | 0.01 | 93 | 1013.2 | |
| 20260830053023 | 61 | 0.0 | 0.0 | 0.01 | 0.01 | 0.01 | 91 | 1013.0 | |
| 20260830051017 | 58 | 0.0 | 0.0 | 0.01 | 0.01 | 0.01 | 97 | 1013.0 | |
| 20260830050114 | 57 | 0.0 | 0.0 | 0.00 | 0.00 | 0.00 | 98 | 1013.0 | |
| 20260830045111 | 57 | 0.0 | 0.0 | 0.00 | 0.00 | 0.00 | 97 | 1012.9 | |
| 20260830044108 | 57 | 0.0 | 0.0 | 0.00 | 0.00 | 0.00 | 97 | 1012.9 | |
| 20260830043105 | 58 | 0.0 | 0.0 | 0.00 | 0.00 | 0.00 | 96 | 1012.8 | |
| 20260830042101 | 58 | 0.0 | 0.0 | 0.00 | 0.00 | 0.00 | 96 | 1012.9 | |
| 20260830040055 | 61 | 0.0 | 0.0 | 0.00 | 0.00 | 0.00 | 92 | 1012.9 | |
| 20260830035052 | 63 | 0.0 | 0.0 | 0.00 | 0.00 | 0.00 | 89 | 1012.8 | |
| 20260830033045 | 65 | 0.0 | 0.0 | 0.00 | 0.00 | 0.00 | 84 | 1012.7 | |
| 20260830030056 | 65 | 0.0 | 0.9 | 0.00 | 0.00 | 0.00 | 83 | 1012.7 | |
| 20260830024030 | 66 | 0.0 | 0.0 | 0.00 | 0.00 | 0.00 | 82 | 1012.9 | |
| 20260830023026 | 66 | 0.0 | 1.7 | 0.00 | 0.00 | 0.00 | 81 | 1012.8 |